This is the latest recevied weather packets stored in our database for station/object KB1JLI. If no packets are shown the sender has not sent any weather packets the latest 10 day(s).
| Time | Temp. | Humidity | Pressure | Rain* | Wind** | Luminosity | Snow |
|---|---|---|---|---|---|---|---|
| 1777646169 | 12.22° C | 50% | 1010.4 hPa | 0 mm | - | 625 W/m² | - |
| 1777645866 | 12.22° C | 50% | 1010.2 hPa | 0 mm | - | 609 W/m² | - |
| 1777645563 | 12.22° C | 54% | 1010.1 hPa | 0 mm | - | 597 W/m² | - |
| 1777645259 | 12.22° C | 52% | 1010 hPa | 0 mm | - | 588 W/m² | - |
| 1777644955 | 11.67° C | 51% | 1009.9 hPa | 0 mm | - | 588 W/m² | - |
| 1777644653 | 11.67° C | 54% | 1009.8 hPa | 0 mm | - | 568 W/m² | - |
| 1777644349 | 11.67° C | 53% | 1009.8 hPa | 0 mm | - | 560 W/m² | - |
| 1777644045 | 11.67° C | 53% | 1009.8 hPa | 0 mm | - | 549 W/m² | - |
| 1777643742 | 11.67° C | 53% | 1009.8 hPa | 0 mm | - | 538 W/m² | - |
| 1777643440 | 11.67° C | 53% | 1009.9 hPa | 0 mm | - | 524 W/m² | - |
| 1777643137 | 11.11° C | 55% | 1009.6 hPa | 0 mm | - | 519 W/m² | - |
| 1777642833 | 11.11° C | 58% | 1009.9 hPa | 0 mm | - | 506 W/m² | - |
| 1777642530 | 11.11° C | 56% | 1009.7 hPa | 0 mm | - | 494 W/m² | - |
| 1777642226 | 11.11° C | 57% | 1009.8 hPa | 0 mm | - | 482 W/m² | - |
| 1777641924 | 11.11° C | 57% | 1009.8 hPa | 0 mm | - | 469 W/m² | - |
| 1777641619 | 10.56° C | 59% | 1009.8 hPa | 0 mm | - | 457 W/m² | - |
| 1777641314 | 10.56° C | 59% | 1009.9 hPa | 0 mm | - | 445 W/m² | - |
| 1777641010 | 10.56° C | 62% | 1009.9 hPa | 0 mm | - | 431 W/m² | - |
| 1777640706 | 10.56° C | 62% | 1009.7 hPa | 0 mm | - | 417 W/m² | - |
| 1777640403 | 10° C | 63% | 1009.7 hPa | 0 mm | - | 405 W/m² | - |
| 1777640100 | 10.56° C | 63% | 1009.7 hPa | 0 mm | - | 392 W/m² | - |
| 1777639796 | 10° C | 65% | 1009.6 hPa | 0 mm | - | 378 W/m² | - |
| 1777639495 | 10° C | 64% | 1009.7 hPa | 0 mm | - | 364 W/m² | - |
| 1777639191 | 10° C | 66% | 1009.6 hPa | 0 mm | - | 349 W/m² | - |
| 1777638887 | 10° C | 67% | 1009.6 hPa | 0 mm | - | 337 W/m² | - |
* Rain latest hour (hover to see other rain measurements)
** Current wind speed in m/s (hover to see current wind gust speed)